Regional Weather Roundup
Issued by NWS

Home | Current Version | Previous Version | Text Only | Print | Product List | Glossary Off
Versions: 1 2 3 4 5 6 7 8 9 10 11 12 13 14 15 16 17 18 19 20 21 22 23 24 25 26 27 28 29 30 31 32 33 34 35 36 37 38 39 40 41 42 43 44 45 46 47 48 49 50

000
ASUS45 KTFX 292110
RWRMT
MONTANA REGIONAL WEATHER ROUNDUP
NATIONAL WEATHER SERVICE GREAT FALLS MT
300 PM MDT WED JUL 29 2015

NOTE: "FAIR" INDICATES FEW OR NO CLOUDS BELOW 12000 FEET WITH NO
SIGNIFICANT WEATHER AND/OR OBSTRUCTIONS TO VISIBILITY.

MTZ001>007-043-292200-
WEST OF THE DIVIDE

CITY           SKY/WX    TMP DP  RH WIND       PRES   REMARKS
KALISPELL      PTCLDY    78  40  25 S12G18    30.17F
MISSOULA       SUNNY     77  39  25 CALM      30.23F
BUTTE          SUNNY     71  34  25 VRB5      30.33F
MULLAN PASS    MOSUNNY   69  36  29 MISG      30.37S
DEER LODGE       N/A     72  39  30 CALM      30.33F
EUREKA           N/A     84  36  17 SW10G18   30.15S
HAMILTON         N/A     77  36  22 SE2       30.24F
LIBBY            N/A     82  37  20 NW3       30.17F
PLAINS           N/A     83  40  21 W2        30.17F
RONAN            N/A     81  41  24 S8        30.24F
$$

MTZ008-052>055-292200-
SOUTHWEST MONTANA

CITY           SKY/WX    TMP DP  RH WIND       PRES   REMARKS
BOZEMAN        SUNNY     75  37  25 VRB7      30.29F
DILLON         SUNNY     75  41  29 S8        30.30F
W YELLOWSTONE  SUNNY     68  34  28 SW8G20    30.41R
TWIN BRIDGES     N/A     74  38  27 E5        30.26F
$$

MTZ009-010-012-014-046-048-049-054-292200-
EAST SLOPES AND CENTRAL MONTANA

CITY           SKY/WX    TMP DP  RH WIND       PRES   REMARKS
CUT BANK       MOSUNNY   80  35  19 W15G28    30.15F
GREAT FALLS    SUNNY     80  35  19 SW7       30.18S
MALMSTROM AFB  SUNNY     78  35  20 W16G23    30.18F
HELENA         SUNNY     79  33  19 W20G29    30.23F
CONRAD           N/A     80  42  25 SW10      30.17F
$$

MTZ011-013-016-021-045-047-050-051-292200-
NORTH CENTRAL MONTANA

CITY           SKY/WX    TMP DP  RH WIND       PRES   REMARKS
HAVRE          SUNNY     79  45  29 SW13G24   30.11F
LEWISTOWN      SUNNY     77  40  26 NW9G20    30.22S
CHINOOK          N/A     79  41  25 SW9       30.10F
FORT BENTON      N/A     81  37  21 SW7G17    30.14F
$$

MTZ017>020-022>027-061-062-292200-
NORTHEAST MONTANA

CITY           SKY/WX    TMP DP  RH WIND       PRES   REMARKS
JORDAN           N/A     81  41  24 VRB3      30.14F
SIDNEY         SUNNY    N/A N/A N/A W18G26    30.07S
WOLF POINT     MOSUNNY   83  43  24 W18G24    30.09S
MALTA            N/A     81  48  31 W10       30.07F
PLENTYWOOD       N/A     75  48  38 NW18G28   30.05S
POPLAR           N/A     81  46  30 NW15G22   30.08S
SCOBEY           N/A     78  46  32 W15       30.08S
$$

MTZ028>42-056>058-292200-
SOUTHCENTRAL AND SOUTHEAST MONTANA

CITY           SKY/WX    TMP DP  RH WIND       PRES   REMARKS
BAKER          SUNNY     81  37  20 NW17G25   30.16F
BILLINGS       MOSUNNY   80  36  20 SW13G23   30.20F
LIVINGSTON     SUNNY     80  31  16 W24       30.25F
MILES CITY     SUNNY     83  40  21 W10G25    30.15S
EKALAKA          N/A     79  37  22 W14       30.16F
FORSYTH          N/A     81  37  21 W12       30.16F
LAUREL           N/A     81  36  19 SW8       30.18F
ROUNDUP          N/A     79  36  21 W12       30.09F
$$

REGIONAL REPORTS...DAKOTAS

CITY           SKY/WX    TMP DP  RH WIND       PRES   REMARKS
WILLISTON      MOSUNNY   82  47  29 W24G31    30.04F
MINOT          MOSUNNY   81  49  32 W23G33    29.97S
DICKINSON      MOSUNNY   79  44  28 NW21G29   30.09F
BEACH          FAIR      79  41  25 NW18G28   30.13S
CROSBY         FAIR      77  48  36 W22G30    30.02S
BISMARCK       PTSUNNY   82  45  27 NW21G29   30.05S
GRAND FORKS    MOSUNNY   80  54  40 W21G35    29.82R
FARGO          MOSUNNY   80  54  40 W21G32    29.90R
BUFFALO SD       N/A     82  38  20 W26G33    30.11F
RAPID CITY     SUNNY     82  47  29 N8        30.20F
$$

REGIONAL REPORTS...WYOMING/IDAHO/WASHINGTON

CITY           SKY/WX    TMP DP  RH WIND       PRES   REMARKS
GILLETTE       SUNNY     78  31  17 VRB5      30.25F
SHERIDAN       SUNNY     81  34  18 CALM      30.23F
BUFFALO WY     SUNNY     79  33  19 NE7       30.28F
CODY           SUNNY     77  34  20 E10G16    30.26F
YELLOWSTONE LA   N/A     61  36  39 E7        30.47F
IDAHO FALLS    SUNNY     76  34  21 W7        30.32F
SALMON         SUNNY     75  45  33 N6        30.24F
BOISE          SUNNY     86  29  12 E7        30.20F
SPOKANE        MOSUNNY   83  33  16 VRB3      30.19F
$$

REGIONAL REPORTS...ALBERTA

CITY           SKY/WX    TMP DP  RH WIND       PRES   REMARKS
EDMONTON       PTSUNNY   73  46  38 W13G21    30.01F
CALGARY        PTSUNNY   66  48  52 W17G26    30.13R
LETHBRIDGE     PTSUNNY   82  41  23 W18G32    30.08F
MEDICINE HAT   MOSUNNY   81  41  24 SW16      30.06F
CARDSTON         N/A     77  39  25 W14G21      N/A
MILK RIVER       N/A     81  39  22 W16G25      N/A
ONEFOUR          N/A     79  41  25 SW10G20     N/A
$$

REGIONAL REPORTS...SASKATCHEWAN

CITY           SKY/WX    TMP DP  RH WIND       PRES   REMARKS
SWIFT CURRENT  PTSUNNY   79  48  34 NW13G23   30.06F
SASKATOON      MOSUNNY   77  48  36 W18G25    29.96S
CYPRESS HILLS    N/A     70  39  32 SW9         N/A
VAL MARIE        N/A     77  43  29 W12G17      N/A
ROCKGLEN         N/A     75  45  33 W16G25      N/A
ASSINIBOIA       N/A     73  46  38 W14G21      N/A
$$


USA.gov is the U.S. government's official web portal to all federal, state and local government web resources and services.